Location: McCall
(45.0000°N, 116.0000°W)
Time: 06:21:15
(UTC-06:00)

Amateur Radio Satellites - All Passes

Search period start: 28 July 2014 05:51
Search period end: 29 July 2014 05:51
Location: McCall, 45.0000°N, 116.0000°W

Satellite Date Start Highest point End Downlink Frequencies (MHz)
Time Altitude Azimuth
STRAND 1 28 Jul 06:03:49 06:06:39 15° 57° (ENE) 06:09:28 ?
Gurwin Techsat 1B 28 Jul 06:04:49 06:08:58 24° 298° (WNW) 06:13:08 435.225 FM
JAS-1B 28 Jul 06:40:37 06:47:56 26° 309° (NW) 06:54:39 435.800 - 435.900 CW/SSB
MaSat-1 28 Jul 06:46:34 06:51:13 30° 50° (NE) 06:55:44 437.345 MHz
Hamsat 28 Jul 06:48:52 06:51:51 18° 92° (E) 06:54:49 145.90 MHz
KITSAT 1 28 Jul 06:57:26 07:04:56 44° 111° (ESE) 07:12:27 435.175 FM
Uosat F 28 Jul 07:02:02 07:06:35 35° 293° (WNW) 07:11:06 435.120 FM
ISS 28 Jul 07:18:05 07:21:22 50° 216° (SW) 07:24:38 145.800 FM
AO-7 28 Jul 07:31:45 07:39:38 49° 299° (WNW) 07:47:27 29.400 - 29.500 MHz
STRAND 1 28 Jul 07:39:59 07:45:09 85° 256° (WSW) 07:50:20 ?
JAS-2 28 Jul 07:42:38 07:48:29 47° 97° (E) 07:53:43 435.800 - 435.900 CW/SSB, 435.910 FM
SO-67 28 Jul 07:53:54 07:55:13 12° 90° (E) 07:56:32 435.3500 MHz FM
MaSat-1 28 Jul 08:23:41 08:28:49 49° 249° (WSW) 08:33:41 437.345 MHz
Hamsat 28 Jul 08:23:56 08:28:02 45° 288° (WNW) 08:32:09 145.90 MHz
PCSat 28 Jul 08:32:59 08:35:00 12° 28° (NNE) 08:37:02 145.825 MHz
KITSAT 1 28 Jul 08:52:23 09:00:15 52° 313° (NW) 09:08:08 435.175 FM
Saudisat 1A 28 Jul 09:09:18 09:13:43 80° 124° (SE) 09:18:10 436.775 MHz
HO-68 28 Jul 09:15:58 09:19:17 14° 86° (E) 09:22:36 435.675 MHz FM
STRAND 1 28 Jul 09:23:50 09:25:06 11° 273° (W) 09:26:22 ?
SO-67 28 Jul 09:25:13 09:28:33 45° 287° (WNW) 09:31:53 435.3500 MHz FM
AO-7 28 Jul 09:26:57 09:30:25 13° 322° (NW) 09:33:53 29.400 - 29.500 MHz
JAS-2 28 Jul 09:28:11 09:33:16 28° 299° (WNW) 09:37:55 435.800 - 435.900 CW/SSB, 435.910 FM
Sapphire 28 Jul 09:41:29 09:46:00 26° 43° (NE) 09:50:29 437.095 MHz 1200 baud AX-25 AFSK
PCSat 28 Jul 10:14:43 10:19:55 44° 50° (NE) 10:25:04 145.825 MHz
UKube-1 28 Jul 10:35:14 10:39:10 32° 97° (E) 10:43:05 145.840 MHz, 145.915 MHz
Saudisat 1A 28 Jul 10:50:43 10:53:51 19° 324° (NW) 10:56:59 436.775 MHz
KITSAT 1 28 Jul 10:52:02 10:57:47 20° 339° (NNW) 11:03:33 435.175 FM
HO-68 28 Jul 11:00:59 11:08:10 76° 105° (ESE) 11:15:17 435.675 MHz FM
Oscar 11 28 Jul 11:20:59 11:25:14 54° 100° (E) 11:29:29 145.825 FM, Beacon 2401.500 USB
Sapphire 28 Jul 11:24:29 11:29:51 63° 243° (WSW) 11:35:11 437.095 MHz 1200 baud AX-25 AFSK
FUNcube-1 28 Jul 11:40:39 11:44:24 32° 97° (E) 11:48:10 145.950 - 145.970 MHz USB
PCSat 28 Jul 11:58:26 12:03:11 32° 250° (WSW) 12:07:54 145.825 MHz
UKube-1 28 Jul 12:11:38 12:15:16 26° 294° (WNW) 12:18:53 145.840 MHz, 145.915 MHz
Oscar 19 28 Jul 12:45:22 12:47:24 12° 56° (NE) 12:49:27 437.125 CW, 437.150 USB
HO-68 28 Jul 12:49:39 12:55:12 25° 305° (NW) 13:00:44 435.675 MHz FM
KITSAT 1 28 Jul 12:51:52 12:56:51 17° 10° (N) 13:01:50 435.175 FM
Oscar 11 28 Jul 12:58:15 13:01:02 17° 297° (WNW) 13:03:48 145.825 FM, Beacon 2401.500 USB
AO-Echo 28 Jul 13:08:23 13:08:53 10° 53° (NE) 13:09:24 ?
Oscar 16 28 Jul 13:11:30 13:15:19 22° 62° (ENE) 13:19:09 437.025 USB, Beacon 2401.1428
FUNcube-1 28 Jul 13:17:19 13:20:42 24° 293° (WNW) 13:24:05 145.950 - 145.970 MHz USB
ITAMSAT 1 28 Jul 13:31:59 13:35:06 16° 58° (ENE) 13:38:13 435.822 SSB
SO-50 28 Jul 13:43:18 13:47:39 54° 120° (ESE) 13:52:06 436.795 FM
RS-15 28 Jul 13:44:30 13:54:22 39° 108° (ESE) 14:04:02 29.354 - 29.394 USB, Beacon 29.352 USB
JAS-1B 28 Jul 13:45:29 13:52:52 28° 52° (NE) 14:00:39 435.800 - 435.900 CW/SSB
AO-27 28 Jul 13:49:55 13:53:57 23° 62° (ENE) 13:57:59 436.795 MHz FM
Uribyol 2 28 Jul 13:50:24 13:54:29 24° 62° (ENE) 13:58:34 436.500 FM
Gurwin Techsat 1B 28 Jul 14:10:16 14:13:17 16° 57° (ENE) 14:16:18 435.225 FM
Oscar 19 28 Jul 14:20:49 14:25:55 81° 74° (ENE) 14:31:04 437.125 CW, 437.150 USB
AO-Echo 28 Jul 14:41:23 14:46:37 62° 72° (ENE) 14:51:52 ?
KITSAT 1 28 Jul 14:47:53 14:55:09 35° 38° (NE) 15:02:22 435.175 FM
Oscar 16 28 Jul 14:49:17 14:54:17 55° 260° (W) 14:59:20 437.025 USB, Beacon 2401.1428
AO-7 28 Jul 14:51:20 14:56:35 19° 45° (NE) 15:01:50 29.400 - 29.500 MHz
ITAMSAT 1 28 Jul 15:08:44 15:13:57 80° 256° (WSW) 15:19:12 435.822 SSB
TMSAT-1 28 Jul 15:23:31 15:28:32 45° 69° (ENE) 15:33:35 436.925 FM
SO-50 28 Jul 15:24:48 15:28:31 25° 320° (NW) 15:32:18 436.795 FM
AO-27 28 Jul 15:28:01 15:33:07 53° 260° (W) 15:38:14 436.795 MHz FM
Uribyol 2 28 Jul 15:28:36 15:33:39 50° 260° (W) 15:38:43 436.500 FM
JAS-1B 28 Jul 15:33:06 15:42:04 90° 74° (ENE) 15:52:03 435.800 - 435.900 CW/SSB
UOSAT-12 28 Jul 15:46:56 15:51:30 68° 122° (ESE) 15:56:11 437.025 FM, 437.400 FM
Gurwin Techsat 1B 28 Jul 15:47:14 15:52:33 85° 256° (WSW) 15:57:54 435.225 FM
RS-15 28 Jul 15:55:02 16:06:03 68° 311° (NW) 16:16:59 29.354 - 29.394 USB, Beacon 29.352 USB
Saudisat 1A 28 Jul 15:55:29 15:58:44 20° 37° (NE) 16:01:58 436.775 MHz
Oscar 19 28 Jul 16:03:28 16:05:54 13° 272° (W) 16:08:20 437.125 CW, 437.150 USB
AO-Echo 28 Jul 16:22:03 16:25:47 19° 269° (W) 16:29:32 ?
Uosat F 28 Jul 16:38:20 16:43:13 52° 70° (ENE) 16:48:08 435.120 FM
AO-7 28 Jul 16:39:39 16:47:55 68° 66° (ENE) 16:56:12 29.400 - 29.500 MHz
KITSAT 1 28 Jul 16:43:12 16:51:16 74° 241° (WSW) 16:59:16 435.175 FM
ITAMSAT 1 28 Jul 16:53:50 16:54:16 10° 274° (W) 16:54:43 435.822 SSB
TMSAT-1 28 Jul 17:04:17 17:08:39 26° 267° (W) 17:13:02 436.925 FM
OPAL 28 Jul 17:26:24 17:31:07 38° 100° (E) 17:35:51 ?
JAS-1B 28 Jul 17:26:55 17:33:48 24° 275° (W) 17:41:15 435.800 - 435.900 CW/SSB
UOSAT-12 28 Jul 17:28:28 17:32:07 22° 322° (NW) 17:35:50 437.025 FM, 437.400 FM
Gurwin Techsat 1B 28 Jul 17:31:38 17:33:18 11° 274° (W) 17:34:58 435.225 FM
Saudisat 1A 28 Jul 17:34:24 17:38:49 73° 237° (WSW) 17:43:11 436.775 MHz
Hamsat 28 Jul 17:44:48 17:47:32 17° 63° (ENE) 17:50:16 145.90 MHz
JAS-2 28 Jul 17:55:16 18:01:57 34° 63° (ENE) 18:08:13 435.800 - 435.900 CW/SSB, 435.910 FM
RS-15 28 Jul 18:11:33 18:20:52 30° 342° (NNW) 18:30:15 29.354 - 29.394 USB, Beacon 29.352 USB
Uosat F 28 Jul 18:18:34 18:22:19 21° 268° (W) 18:26:05 435.120 FM
AO-7 28 Jul 18:34:16 18:41:17 30° 266° (W) 18:48:22 29.400 - 29.500 MHz
KITSAT 1 28 Jul 18:41:03 18:45:16 15° 261° (W) 18:49:28 435.175 FM
OPAL 28 Jul 19:05:30 19:09:53 31° 297° (WNW) 19:14:19 ?
Hamsat 28 Jul 19:19:05 19:23:08 48° 261° (W) 19:27:13 145.90 MHz
JAS-2 28 Jul 19:38:56 19:46:38 60° 260° (W) 19:53:51 435.800 - 435.900 CW/SSB, 435.910 FM
HO-68 28 Jul 19:47:43 19:51:44 16° 48° (NE) 19:55:44 435.675 MHz FM
STRAND 1 28 Jul 19:49:09 19:53:31 28° 95° (E) 19:57:51 ?
SO-67 28 Jul 19:59:51 20:03:19 76° 76° (ENE) 20:06:48 435.3500 MHz FM
RS-15 28 Jul 20:28:23 20:37:39 30° 17° (NNE) 20:47:03 29.354 - 29.394 USB, Beacon 29.352 USB
SO-50 28 Jul 20:33:12 20:36:26 18° 34° (NE) 20:39:41 436.795 FM
STRAND 1 28 Jul 21:28:04 21:32:49 39° 292° (WNW) 21:37:31 ?
JAS-2 28 Jul 21:31:01 21:32:52 11° 277° (W) 21:34:43 435.800 - 435.900 CW/SSB, 435.910 FM
HO-68 28 Jul 21:31:05 21:38:11 69° 69° (ENE) 21:45:19 435.675 MHz FM
UKube-1 28 Jul 21:32:36 21:36:37 37° 69° (ENE) 21:40:39 145.840 MHz, 145.915 MHz
SO-50 28 Jul 22:12:56 22:17:42 85° 54° (NE) 22:22:32 436.795 FM
MaSat-1 28 Jul 22:16:32 22:20:32 54° 112° (ESE) 22:25:11 437.345 MHz
Oscar 11 28 Jul 22:17:49 22:22:00 53° 72° (ENE) 22:26:13 145.825 FM, Beacon 2401.500 USB
UOSAT-12 28 Jul 22:35:21 22:38:51 20° 36° (NE) 22:42:19 437.025 FM, 437.400 FM
FUNcube-1 28 Jul 22:39:05 22:42:58 34° 69° (ENE) 22:46:48 145.950 - 145.970 MHz USB
RS-15 28 Jul 22:41:43 22:52:40 64° 47° (NE) 23:03:56 29.354 - 29.394 USB, Beacon 29.352 USB
UKube-1 28 Jul 23:09:29 23:12:56 23° 266° (W) 23:16:24 145.840 MHz, 145.915 MHz
HO-68 28 Jul 23:20:48 23:26:27 25° 268° (W) 23:32:09 435.675 MHz FM
MaSat-1 28 Jul 23:54:52 23:58:18 22° 315° (NW) 00:02:06 437.345 MHz
SO-50 28 Jul 23:55:20 23:57:38 13° 251° (WSW) 23:59:56 436.795 FM
Oscar 11 28 Jul 23:56:00 23:58:32 15° 269° (W) 00:01:05 145.825 FM, Beacon 2401.500 USB
ISS 29 Jul 00:02:21 00:04:44 18° 135° (SE) 00:07:07 145.800 FM
UOSAT-12 29 Jul 00:14:50 00:19:36 83° 236° (SW) 00:24:17 437.025 FM, 437.400 FM
FUNcube-1 29 Jul 00:15:59 00:19:27 23° 266° (W) 00:22:52 145.950 - 145.970 MHz USB
Sapphire 29 Jul 00:28:45 00:30:43 12° 102° (ESE) 00:32:41 437.095 MHz 1200 baud AX-25 AFSK
RS-15 29 Jul 00:54:33 01:04:36 43° 250° (WSW) 01:15:01 29.354 - 29.394 USB, Beacon 29.352 USB
PCSat 29 Jul 00:59:22 01:03:42 25° 108° (ESE) 01:08:03 145.825 MHz
ISS 29 Jul 01:37:47 01:41:07 72° 332° (NNW) 01:44:29 145.800 FM
UOSAT-12 29 Jul 01:57:53 01:58:57 11° 254° (WSW) 02:00:01 437.025 FM, 437.400 FM
Sapphire 29 Jul 02:07:50 02:13:14 82° 120° (ESE) 02:18:41 437.095 MHz 1200 baud AX-25 AFSK
Oscar 19 29 Jul 02:31:00 02:35:12 25° 93° (E) 02:39:23 437.125 CW, 437.150 USB
PCSat 29 Jul 02:41:29 02:46:46 54° 307° (NW) 02:52:06 145.825 MHz
AO-Echo 29 Jul 02:48:14 02:51:29 17° 89° (E) 02:54:38 ?
Oscar 16 29 Jul 02:58:53 03:03:51 45° 99° (E) 03:08:47 437.025 USB, Beacon 2401.1428
OPAL 29 Jul 03:08:00 03:10:11 13° 54° (NE) 03:12:22 ?
ISS 29 Jul 03:15:18 03:18:14 27° 352° (N) 03:21:11 145.800 FM
JAS-1B 29 Jul 03:18:33 03:26:31 30° 88° (E) 03:33:32 435.800 - 435.900 CW/SSB
ITAMSAT 1 29 Jul 03:20:02 03:24:39 32° 96° (E) 03:29:13 435.822 SSB
TMSAT-1 29 Jul 03:38:39 03:41:40 15° 89° (E) 03:44:40 436.925 FM
AO-27 29 Jul 03:39:01 03:44:02 47° 99° (E) 03:49:00 436.795 MHz FM
Uribyol 2 29 Jul 03:39:13 03:44:15 49° 100° (E) 03:49:14 436.500 FM
Sapphire 29 Jul 03:53:16 03:57:21 21° 321° (NW) 04:01:26 437.095 MHz 1200 baud AX-25 AFSK
Gurwin Techsat 1B 29 Jul 04:01:47 04:06:35 33° 96° (E) 04:11:20 435.225 FM
Oscar 19 29 Jul 04:09:49 04:14:44 46° 291° (WNW) 04:19:39 437.125 CW, 437.150 USB
AO-Echo 29 Jul 04:25:41 04:30:45 63° 288° (WNW) 04:35:36 ?
PCSat 29 Jul 04:28:46 04:31:28 14° 329° (NNW) 04:34:11 145.825 MHz
Oscar 16 29 Jul 04:38:45 04:42:57 26° 296° (WNW) 04:47:10 437.025 USB, Beacon 2401.1428
AO-7 29 Jul 04:40:40 04:46:01 18° 88° (E) 04:51:20 29.400 - 29.500 MHz
OPAL 29 Jul 04:43:21 04:48:18 84° 72° (ENE) 04:53:17 ?
Uosat F 29 Jul 04:45:51 04:48:16 13° 89° (E) 04:50:40 435.120 FM
ISS 29 Jul 04:52:34 04:55:36 30° 12° (NNE) 04:58:38 145.800 FM
ITAMSAT 1 29 Jul 04:59:28 05:04:10 36° 294° (WNW) 05:08:50 435.822 SSB
JAS-1B 29 Jul 05:08:20 05:17:50 71° 291° (WNW) 05:25:59 435.800 - 435.900 CW/SSB
TMSAT-1 29 Jul 05:16:53 05:22:11 75° 286° (WNW) 05:27:27 436.925 FM
AO-27 29 Jul 05:19:06 05:23:16 25° 297° (WNW) 05:27:25 436.795 MHz FM
Uribyol 2 29 Jul 05:19:21 05:23:25 24° 298° (WNW) 05:27:28 436.500 FM
KITSAT 1 29 Jul 05:24:33 05:27:05 12° 97° (E) 05:29:37 435.175 FM
